Flag for Canada

Past Weather in Abbotsford, British Columbia, Canada — Yesterday and Last 2 Weeks

Now
63 °F

Broken clouds.


Feels Like: 63 °F
Forecast: 69 / 51 °F
Wind: 2 mph from North

Location: Abbotsford

Current Time: Jul 4, 2020 at 11:58:32 am

Latest Report: Jul 4, 2020 at 11:00 am


Visibility: 12 mi

Pressure: 30.21 "Hg

Humidity: 64%

Dew Point: 50 °F

Location of AbbotsfordLocation

Past Weather in Abbotsford — Graph

°F

Abbotsford Temperature Yesterday

Maximum temperature yesterday: 57 °F (at 12:00 pm)
Minimum temperature yesterday: 54 °F (at 1:00 am)
Average temperature yesterday: 54 °F

High & Low Weather Summary for the Past Weeks

 TemperatureHumidityPressure
High77 °F (Jun 19, 3:00 pm)100% (Jun 20, 7:00 am)30.24 "Hg (Jun 20, 7:00 am)
Low52 °F (Jun 22, 4:00 am)41% (Jun 22, 7:00 pm)29.85 "Hg (Jun 28, 1:00 am)
Average61 °F81%29.99 "Hg
* Reported Jun 19 10:00 am — Jul 4 10:00 am, Abbotsford. Weather by CustomWeather, © 2020

Note: Actual official high and low records may vary slightly from our data, if they occured in-between our weather recording intervals... More about our weather records

Abbotsford Weather History for the Previous 24 Hours

Scroll right to see more
 ConditionsComfort  
Time TempWeatherWind HumidityBarometerVisibility
10:00 am
Sat, Jul 4
59 °FPartly sunny.2 mph82%30.21 "Hg10 mi
9:00 am59 °FPartly sunny.5 mph82%30.20 "Hg8 mi
8:52 am57 °FPartly sunny.2 mph88%30.20 "Hg8 mi
8:00 am55 °FFog.5 mph88%30.20 "Hg5 mi
7:00 am54 °FFog.3 mph94%30.19 "Hg5 mi
6:00 am52 °FBroken clouds.No wind100%30.18 "Hg20 mi
5:00 am52 °FPassing clouds.2 mph100%30.17 "Hg10 mi
4:00 am52 °FPartly cloudy.5 mph100%30.16 "Hg7 mi
3:00 am54 °FOvercast.6 mph94%30.15 "Hg7 mi
2:00 am54 °FLight rain. Mostly cloudy.5 mph94%30.16 "Hg5 mi
1:00 am54 °FLight rain. Mostly cloudy.6 mph94%30.16 "Hg6 mi
12:00 am54 °FLight rain. Mostly cloudy.3 mph100%30.17 "Hg6 mi
11:00 pm
Fri, Jul 3
54 °FLight rain. Mostly cloudy.3 mph100%30.17 "Hg6 mi
10:00 pm54 °FLight rain. Mostly cloudy.5 mph100%30.17 "Hg8 mi
9:00 pm54 °FLight rain. Mostly cloudy.5 mph100%30.16 "Hg10 mi
8:00 pm54 °FLight rain. Mostly cloudy.6 mph100%30.16 "Hg15 mi
7:00 pm55 °FLight rain. Low clouds.2 mph94%30.16 "Hg10 mi
6:00 pm55 °FLight rain. More clouds than sun.No wind88%30.16 "Hg10 mi
5:00 pm55 °FLight rain. More clouds than sun.3 mph88%30.16 "Hg9 mi
4:00 pm57 °FLight rain. More clouds than sun.6 mph88%30.16 "Hg9 mi
3:00 pm57 °FLight rain. Cloudy.7 mph82%30.15 "Hg9 mi
2:00 pm55 °FLight rain. Fog.8 mph88%30.14 "Hg6 mi
1:00 pm55 °FLight rain. Mostly cloudy.8 mph88%30.11 "Hg7 mi
12:25 pm55 °FLight rain. Fog.12 mph94%30.10 "Hg6 mi
12:00 pm57 °FLight rain. Fog.12 mph88%30.09 "Hg5 mi
11:31 am55 °FLight rain. Cloudy.8 mph94%30.08 "Hg5 mi
11:13 am54 °FLight rain. Mostly cloudy.7 mph100%30.08 "Hg7 mi
11:00 am54 °FRain. Fog.7 mph100%30.08 "Hg4 mi
Weather by CustomWeather, © 2020

See weather overview